{"data":{"norad_id":64776,"intl_designator":"2025-147X","name":"STARLINK-34637","alt_names":[],"object_type":"PAYLOAD","status":"ACTIVE","operator":null,"country":"US","launch_date":"2025-07-08","launch_site_code":"AFETR","launch_vehicle":null,"mission":null,"orbit_class":"UNKNOWN","rcs_meters":null,"size_class":null,"mass_kg":null,"dimensions":null,"purposes":["comms"],"wikipedia_slug":null,"has_3d_model":false,"image_url":null,"decayed_at":null,"tle_current":{"epoch":"2026-05-25T00:19:38.464032Z","epoch_age_seconds":64069,"freshness":"FRESH","line1":"1 64776U 25147X   26145.01363963  .00025150  00000+0  75290-3 0  9996","line2":"2 64776  53.1588 247.7833 0001366  64.1834 295.9310 15.34404305 50371","mean_motion":15.34404305,"eccentricity":0.0001366,"inclination_deg":53.1588,"raan_deg":247.7833,"arg_perigee_deg":64.1834,"mean_anomaly_deg":295.931,"bstar":0.0007529,"rev_number":5037,"period_min":93.84749477746,"perigee_km":461.75598784081,"apogee_km":463.62490189875,"semimajor_km":6840.8274448698,"source":"CELESTRAK","updated_at":"2026-05-25T13:38:20.559412Z"}}}